Regional Weather Roundup
Issued by NWS

Home | Current Version | Previous Version | Graphics & Text | Print | Product List | Glossary On
Versions: 1 2 3 4 5 6 7 8 9 10 11 12 13 14 15 16 17 18 19 20 21 22 23 24 25 26 27 28 29 30 31 32 33 34 35 36 37 38 39 40 41 42 43 44 45 46 47 48 49 50
000
ASUS43 KMPX 200910
RWRMN
WEATHER ROUNDUP FOR MINNESOTA
NATIONAL WEATHER SERVICE TWIN CITIES/CHANHASSEN MN
400 AM CDT THU JUL 20 2017


NOTE: "FAIR" INDICATES FEW OR NO CLOUDS BELOW 12,000 FEET WITH NO
SIGNIFICANT WEATHER AND/OR OBSTRUCTIONS TO VISIBILITY. N/A MEANS
CURRENT SKY AND/OR WEATHER CONDITIONS ARE NOT AVAILABLE.

MNZ060>063-068>070-201000-
   Twin Cities Metro

CITY           SKY/WX    TMP DP  RH WIND       PRES   REMARKS
TWIN CITIES    PTCLDY    69  66  90 N3        29.94R
ST PAUL        PTCLDY    68  68 100 CALM      29.94R FOG
CRYSTAL        FOG       65  63  93 CALM      29.93S VSB 3/4
BLAINE         FOG       66  66 100 CALM      29.95R VSB 1/4
LAKEVILLE      FOG       66  66 100 CALM      29.94S VSB 1/2
EDEN PRAIRIE   PTCLDY    68  67  96 N6        29.93S FOG
SOUTH ST PAUL  FOG       68  68  99 CALM      29.94S VSB 3/4
LAKE ELMO      FOG       66  66 100 CALM      29.96R VSB 1/4
$$
MNZ001>005-007-008-013>017-022>024-027-028-201000-
   Northwest Minnesota

CITY           SKY/WX    TMP DP  RH WIND       PRES   REMARKS
BEMIDJI        CLEAR     62  62  99 W5        29.95R
HALLOCK        CLEAR     57  55  94 NW7       29.95R
ROSEAU         MOCLDY    63  57  82 NW5       29.92S HAZE
WARROAD        CLEAR     63  57  82 W6        29.93R
THIEF RVR FALL PTCLDY    62  61  96 W6        29.95S
CROOKSTON      FOG       57  57 100 NW3       29.95S VSB 1/4
FOSSTON        FOG       55  54  94 CALM      29.97R VSB<1/4
DETROIT LAKES  CLEAR     64  63  94 CALM      29.97R
MOORHEAD       FOG       59  57  94 CALM      29.95S VSB 1/4
PARK RAPIDS    CLEAR     60  57  89 W3        29.95R
MAHNOMEN       FOG       59  59  99 CALM      29.96S VSB 1/4
$$
MNZ006-009>011-018-025>026-201000-
   North Central Minnesota

CITY           SKY/WX    TMP DP  RH WIND       PRES   REMARKS
BAUDETTE       CLEAR     60  60 100 W7        29.91R
FLAG ISLAND    CLEAR     64  63  94 NW12      29.91R
INTL FALLS     FOG       55  54  96 CALM      29.90R VSB 3/4
WASKISH        CLEAR     66  64  94 NW7       29.92S
BIG FORK       CLEAR     63  61  94 CALM      29.92S
LONGVILLE      CLEAR     57  57 100 CALM      29.94S FOG
GRAND RAPIDS   CLEAR     65  63  93 CALM      29.95R
CRANE LAKE     PTCLDY    54  54 100 CALM      29.91S
ORR            CLEAR     61  55  82 CALM      29.89S
COOK           CLEAR     57  57 100 CALM      29.91S
WALKER         FAIR      64  63  96 NW3       29.94R
$$
MNZ012-019>021-037-201000-
   Northeast Minnesota

CITY           SKY/WX    TMP DP  RH WIND       PRES   REMARKS
DULUTH         CLEAR     59  58  96 W7        29.94R
ELY            CLEAR     57  55  94 CALM      29.91S
HIBBING        CLEAR     50  50 100 CALM      29.93R FOG
EVELETH        PTCLDY    55  52  90 CALM      29.93S
DULUTH HARBOR  CLEAR     61  57  88 SW6       29.93R
TWO HARBORS    CLEAR     59  54  82 CALM      29.91R
SILVER BAY     CLEAR     52  52 100 CALM      29.90S
GRAND MARAIS     N/A     55  54  96 CALM      29.88R
G MARAIS ARPRT CLEAR     54  48  82 SW3       29.92S
$$
MNZ029>031-032-039>041-046>048-054>057-064-201000-
   West Central Minnesota

CITY           SKY/WX    TMP DP  RH WIND       PRES   REMARKS
FERGUS FALLS   FOG       61  61 100 CALM      29.95F VSB 1/2
WHEATON        PTCLDY    63  61  94 SW5       29.99R FOG
MORRIS         FOG       63  63 100 CALM      29.97R VSB 1/4
ALEXANDRIA     CLEAR     64  62  93 CALM      29.98R
ELBOW LAKE     FOG       62  62 100 CALM      29.97R VSB 1/4
WADENA         PTCLDY    63  63 100 W3        29.96R
GLENWOOD       CLEAR     63  61  94 CALM      29.98R FOG
APPLETON       CLEAR     64  63  94 CALM      29.96S FOG
BENSON         PTCLDY    63  63 100 CALM      29.98S FOG
ORTONVILLE     PTCLDY    66  64  94 CALM      29.96F FOG
MADISON        FOG       66  66 100 S5        29.99R VSB 1/4
WILLMAR        FAIR      66  66 100 CALM      29.98F FOG
$$
MNZ033>034-036-042>043-049>051-058-059-201000-
   Central Minnesota

CITY           SKY/WX    TMP DP  RH WIND       PRES   REMARKS
ST CLOUD       CLEAR     62  62 100 CALM      29.95S FOG
SAUK CENTRE    FAIR      60  60  99 CALM      29.97S
PAYNESVILLE    FOG       61  61 100 CALM      29.98R VSB 1/2
AITKIN         FOG       55  54  94 CALM      29.94S VSB 3/4
PINE RIVER     FOG       57  57 100 MISG      29.99R VSB 1
BRAINERD       CLEAR     57  57 100 S6        29.96R FOG
STAPLES        CLEAR     59  59 100 CALM      29.97R
LONG PRAIRIE   FAIR      59  59 100 CALM      29.97S FOG
LITTLE FALLS   FOG       57  55  94 CALM      29.97R VSB 1/2
LITCHFIELD     MOCLDY    66  66 100 CALM      29.98R FOG
BUFFALO        PTCLDY    66  64  93 CALM      29.97R FOG
MAPLE LAKE     MOCLDY    66  66  99 CALM      29.98R FOG
HUTCHINSON     PTCLDY    66  65  99 N3        29.97S FOG
$$
MNZ037-044-045-052-053-201000-
   East Central Minnesota

CITY           SKY/WX    TMP DP  RH WIND       PRES   REMARKS
PRINCETON      CLEAR     63  61  94 CALM      29.95F FOG
MORA             N/A     59  57  94 CALM      29.97S FOG
CAMBRIDGE      CLEAR     64  59  82 CALM      29.93S
RUSH CITY      PTCLDY    61  59  95 CALM      29.94F
MOOSE LAKE     CLEAR     55  54  94 CALM      29.93S FOG
HINCKLEY       FAIR      59  59 100 CALM      29.95S
CLOQUET        CLEAR     57  55  94 CALM      29.94S
MCGREGOR       CLEAR     59  57  94 CALM      29.95S
$$
MNZ071>073-080-081-089-090-097-098-201000-
   Southwest Minnesota

CITY           SKY/WX    TMP DP  RH WIND       PRES   REMARKS
MONTEVIDEO     CLEAR     64  63  94 CALM      29.97F FOG
GRANITE FALLS  MOCLDY    67  66  96 CALM      29.99R FOG
CANBY          PTCLDY    68  67  96 CALM      30.00R
MARSHALL       CLOUDY    69  68  96 NW5       29.98S FOG
REDWOOD FALLS  CLOUDY    69  66  90 NW5       29.95S
OLIVIA         PTCLDY    64  63  94 CALM      29.97S FOG
PIPESTONE      CLOUDY    70  68  94 CALM      29.99R
WINDOM         CLOUDY    66  64  94 NW5       29.96S FOG
WORTHINGTON    CLOUDY    68  66  93 N3        29.97F
JACKSON        CLOUDY    66  66 100 CALM      29.96F
TRACY          CLOUDY    69  69 100 N3        29.97F FOG
SLAYTON        HVY RAIN  67  66  94 CALM      29.99S
$$
MNZ065>067-074>077-082>085-091>093-201000-
   South Central Minnesota

CITY           SKY/WX    TMP DP  RH WIND       PRES   REMARKS
MANKATO        CLOUDY    69  67  93 E3        29.93S
NEW ULM        CLOUDY    66  64  94 N5        29.94R
ST JAMES       CLOUDY    66  66 100 CALM      29.95R
FAIRMONT       PTCLDY    68  68 100 NW3       29.95R
GLENCOE        FOG       66  67 100 CALM      29.95S VSB 1
FARIBAULT      CLOUDY    70  68  94 CALM      29.93S
OWATONNA       CLOUDY    70  68  94 NE3       29.91F
WASECA         CLOUDY    68  64  88 CALM      29.94S
ALBERT LEA     CLOUDY    72  70  94 CALM      29.93R FOG
$$
MNZ078>079-086>088-094>096-201000-
   Southeast Minnesota

CITY           SKY/WX    TMP DP  RH WIND       PRES   REMARKS
ROCHESTER      CLOUDY    69  69 100 E7        29.95F
RED WING         N/A     70  66  88 CALM      29.92S FOG
STANTON        CLOUDY    69  67  94 CALM      29.92F FOG
DODGE CENTER   CLOUDY    68  66  94 SE5       29.93S
WINONA         CLOUDY    73  72  94 CALM      29.97R
AUSTIN         CLOUDY    73  70  88 NE6       29.91S
PRESTON        CLOUDY    69  66  90 E6        29.95F
$$
ABBREVIATIONS USED IN REMARKS
   TC - TEMPERATURES IN CELSIUS
  WCI - WIND CHILL INDEX
   HX - HEAT INDEX
  VSB - VISIBILITY
$$



USA.gov is the U.S. government's official web portal to all federal, state and local government web resources and services.